Oxnard, CA

4:06 AM PDT on September 21, 2019 (GMT -0700)
Oxnard

Weather History for KOXR - August, 2019

Change the Weather History Date:

Saturday, August 24, 2019

  Actual Average Record
Temperature  
Mean Temperature 69 °F -  
Max Temperature 75 °F 76 °F 86 °F (1968)
Min Temperature 63 °F 57 °F 50 °F (1972)
Cooling Degree Days 4    
Growing Degree Days 19 (Base 50)    
Moisture  
Dew Point 61 °F    
Average Humidity 77    
Maximum Humidity 87    
Minimum Humidity 66    
Precipitation  
Precipitation 0.00 in - - ()
Sea Level Pressure  
Sea Level Pressure 29.92 in    
Wind  
Wind Speed 4 mph (West)    
Max Wind Speed 14 mph    
Max Gust Speed -    
Visibility 10 miles    
Events      
Averages and records for this station are not official NWS values.
T = Trace of Precipitation, MM = Missing Value Source: NWS Daily Summary

Daily Weather History Graph

Daily Weather History Graph

Search for Another Location

Airport or City:

Astronomy

Aug. 24, 2019 Rise Set
Actual Time 6:24 AM PDT 7:33 PM PDT
Civil Twilight 5:58 AM PDT 7:59 PM PDT
Nautical Twilight 5:27 AM PDT 8:30 PM PDT
Astronomical Twilight 4:55 AM PDT 9:02 PM PDT
Moon 12:26 AM PDT (8/24) 2:47 PM PDT (8/24)
Length of Visible Light 14h 00m
Length of Day
13h 08m
Last Quarter, 38% of the Moon is Illuminated
Aug 24
Last Quarter
Aug 30
New
Sep 5
First Quarter
Sep 13
Full
Sep 21
Last Quarter

Hourly Weather History & Observations

Time (PDT) Temp. Dew Point Humidity Pressure Visibility Wind Dir Wind Speed Gust Speed Precip Events Conditions
12:51 AM 66.0 °F 60.1 °F 81% 29.90 in 10.0 mi Calm Calm - N/A   Clear
1:51 AM 66.9 °F 61.0 °F 81% 29.91 in 10.0 mi Calm Calm - N/A   Clear
2:51 AM 64.9 °F 60.1 °F 84% 29.90 in 10.0 mi Calm Calm - N/A   Clear
3:51 AM 64.0 °F 59.0 °F 84% 29.89 in 9.0 mi Calm Calm - N/A   Clear
4:51 AM 63.0 °F 59.0 °F 87% 29.88 in 9.0 mi Calm Calm - N/A   Clear
5:51 AM 64.0 °F 59.0 °F 84% 29.90 in 9.0 mi East 3.5 mph - N/A   Clear
6:51 AM 63.0 °F 57.9 °F 84% 29.91 in 7.0 mi Calm Calm - N/A   Partly Cloudy
7:51 AM 68.0 °F 61.0 °F 78% 29.93 in 7.0 mi Calm Calm - N/A   Partly Cloudy
8:51 AM 71.1 °F 63.0 °F 75% 29.93 in 8.0 mi Calm Calm - N/A   Clear
9:51 AM 75.0 °F 63.0 °F 66% 29.93 in 10.0 mi WSW 4.6 mph - N/A   Clear
10:51 AM 73.0 °F 63.0 °F 71% 29.94 in 10.0 mi WSW 8.1 mph - N/A   Clear
11:51 AM 73.9 °F 63.0 °F 68% 29.94 in 10.0 mi West 9.2 mph - N/A   Clear
12:51 PM 75.0 °F 63.0 °F 66% 29.94 in 10.0 mi West 11.5 mph - N/A   Clear
1:51 PM 75.0 °F 63.0 °F 66% 29.93 in 10.0 mi West 11.5 mph - N/A   Clear
2:51 PM 75.0 °F 63.0 °F 66% 29.93 in 10.0 mi West 12.7 mph - N/A   Clear
3:51 PM 75.0 °F 63.0 °F 66% 29.93 in 10.0 mi West 11.5 mph - N/A   Clear
4:51 PM 73.0 °F 63.0 °F 71% 29.92 in 10.0 mi West 12.7 mph - N/A   Clear
5:51 PM 72.0 °F 62.1 °F 71% 29.91 in 10.0 mi West 13.8 mph - N/A   Clear
6:51 PM 69.1 °F 62.1 °F 78% 29.91 in 10.0 mi West 12.7 mph - N/A   Clear
7:51 PM 66.9 °F 62.1 °F 84% 29.91 in 10.0 mi West 11.5 mph - N/A   Clear
8:51 PM 66.9 °F 61.0 °F 81% 29.92 in 10.0 mi WNW 9.2 mph - N/A   Clear
9:51 PM 66.0 °F 61.0 °F 84% 29.94 in 10.0 mi West 5.8 mph - N/A   Clear
10:51 PM 66.0 °F 61.0 °F 84% 29.95 in 10.0 mi West 5.8 mph - N/A   Clear
11:51 PM 64.9 °F 61.0 °F 87% 29.96 in 10.0 mi WNW 4.6 mph - N/A   Clear